Regional Weather Roundup
Issued by NWS

Home | Current Version | Previous Version | Text Only | Print | Product List | Glossary Off
Versions: 1 2 3 4 5 6 7 8 9 10 11 12 13 14 15 16 17 18 19 20 21 22 23 24 25 26 27 28 29 30 31 32 33 34 35 36 37 38 39 40 41 42 43 44 45 46 47 48 49 50

000
ASUS45 KTFX 170619
RWRMT
MONTANA HOURLY WEATHER ROUNDUP
NATIONAL WEATHER SERVICE GREAT FALLS MT
1219 AM MDT WED SEP 17 2014

NOTE: "FAIR" INDICATES FEW OR NO CLOUDS BELOW 12000 FEET WITH NO
SIGNIFICANT WEATHER AND/OR OBSTRUCTIONS TO VISIBILITY.

* THESE STATIONS ARE NOT UNDER NWS QUALITY CONTROL. THEY DO NOT
   REPORT WEATHER SUCH AS PRECIPITATION OR FOG.

MTZ001>007-043-170700-
WEST OF THE DIVIDE
CITY           SKY/WX    TMP DP  RH WIND       PRES   REMARKS
KALISPELL      CLOUDY    52  45  77 CALM      29.90S
MISSOULA       PTCLDY    57  43  60 CALM      29.93R
BUTTE          PTCLDY    48  41  77 CALM      30.08S
MULLAN PASS    PTCLDY    64  37  37 CALM      30.06S
* ESSEX        N/A       55  44  67 E3         N/A
* LINCOLN      N/A       51  42  71 N1         N/A
* LOOKOUT PASS N/A       59  41  51 NE1        N/A
* POLSON       N/A       61  39  44 N/A        N/A
* RONAN APT    CLOUDY    57  45  64 N/A        N/A
* SEELEY LAKE  N/A       52  43  72 N/A        N/A
* THOMP F APT  MOCLDY    61  36  39 NE4G11     N/A
$$

MTZ008-052>055-170700-
SOUTHWEST MONTANA
CITY           SKY/WX    TMP DP  RH WIND       PRES   REMARKS
BOZEMAN        PTCLDY    54  46  74 SE5       30.02S
DILLON         MOCLDY    57  46  67 S3        30.04F
W YELLOWSTONE  PTCLDY    41  37  86 S3        30.17S
* THREE FORKS  PTCLDY    54   9  16 N/A        N/A
* BOULDER HILL N/A       56  40  55 S9         N/A
* MONIDA PASS  N/A       45  42  89 W7         N/A
* RAYNOLDS PAS N/A       47  31  54 S5         N/A
* WHITEHALL    N/A       55  43  64 N6         N/A
* WISE RIVER   N/A       52  40  64 SW2G7      N/A
$$

MTZ009>010-012-014-046-048-049-054-170700-
EAST SLOPES AND CENTRAL MONTANA
CITY           SKY/WX    TMP DP  RH WIND       PRES   REMARKS
CUT BANK       CLOUDY    61  41  48 NW7       29.92S
GREAT FALLS    CLOUDY    63  43  48 SW6       29.92R
HELENA         MOCLDY    63  50  63 SE3       29.97R
MALMSTROM AFB  CLOUDY    63  45  52 SW12      29.92S
* CONRAD       CLOUDY    57  48  72 N/A        N/A
* EAST GLACIER N/A       61  40  46 N4         N/A
* MONARCH      N/A       59  37  44 W2G9       N/A
* PENDROY      N/A       66  40  39 W4G13      N/A
* SAINT MARY   N/A       51  42  71 SE2        N/A
* SWEET GRASS  N/A       65  38  37 S10        N/A
* WHITE SULPH  N/A       57  41  55 NE4        N/A
$$

MTZ011-013-016-021-035-040-045-047-050-051-170700-
NORTH CENTRAL MONTANA
CITY           SKY/WX    TMP DP  RH WIND       PRES   REMARKS
HAVRE          CLOUDY    59  50  72 E12       29.86F
LEWISTOWN      MOCLDY    55  45  69 SE5       29.96S
* CHINOOK      CLOUDY    55  50  83 S3        29.88S
* FORT BENTON  CLOUDY    63  46  54 CALM      29.89R
* CHESTER      N/A       60  41  50 N/A        N/A
* DENTON       N/A       56  45  67 S1         N/A
* JUDITH GAP   N/A       56  45  67 S4         N/A
* LOMA         N/A       63  46  54 NE8        N/A
$$

MTZ017>020-022>027-061-062-170700-
NORTHEAST MONTANA
CITY           SKY/WX    TMP DP  RH WIND       PRES   REMARKS
GLASGOW        PTCLDY    55  41  59 E12       29.90S
JORDAN         CLOUDY    52  48  86 CALM      29.91S
SIDNEY         CLEAR     46  37  71 CALM      29.95R
WOLF POINT     PTCLDY    48  37  66 CALM      29.92R
* BEAVER HILL  N/A       57  43  60 SE10       N/A
* CIRCLE       N/A       56  43  62 N/A        N/A
* LINDSAY DVD  N/A       51  44  77 N/A        N/A
* NAVAJO       N/A       55  36  49 SW6        N/A
* SACO         N/A       56  47  72 SE2        N/A
$$

MTZ028>042-056>058-170700-
SOUTHCENTRAL AND SOUTHEAST MONTANA
CITY           SKY/WX    TMP DP  RH WIND       PRES   REMARKS
BAKER          MOCLDY    50  46  86 CALM      29.96R
BILLINGS       FAIR      68  43  40 SW8       29.93F
LIVINGSTON     MOCLDY    61  43  52 S6        30.02R
MILES CITY     PTCLDY    61  45  56 SE6       29.92S
* LAUREL APT   CLEAR     61  43  52 NW5        N/A
* ROUNDUP APT  PTCLDY    57  45  64 NE5        N/A
* ALZADA       N/A       53  44  72 E5         N/A
* HYSHAM       N/A       67  40  37 SE4        N/A
* LAME DEER    N/A       67  42  40 SE6        N/A
* REED POINT   N/A       53  48  83 W1         N/A
* ROSCOE HILL  N/A       68  31  25 S12        N/A
$$

REGIONAL REPORTS...DAKOTAS
CITY           SKY/WX    TMP DP  RH WIND       PRES   REMARKS
WILLISTON      HAZE      41  36  82 CALM      29.93S
DICKINSON      PTCLDY    52  43  72 S3        29.94R
BEACH          N/A       46  46 100 CALM      29.95S
CROSBY         CLEAR     48  45  89 SW9       29.92S
TIOGA          CLEAR     39  39 100 CALM      29.97R
WATFORD CITY   CLEAR     41  37  86 CALM      29.93R
BISMARCK       CLEAR     46  43  89 VRB3      29.94R
GRAND FORKS    CLEAR     48  43  83 S7        29.90S
FARGO          CLEAR     57  46  67 SE8       29.91S
BUFFALO SD     PTCLDY    55  45  69 NE10      29.88S
RAPID CITY     CLEAR     57  46  67 CALM      29.96S
$$

REGIONAL REPORTS...WYOMING/IDAHO/WASHINGTON
CITY           SKY/WX    TMP DP  RH WIND       PRES   REMARKS
GILLETTE       MOCLDY    55  39  55 S6        30.01F
SHERIDAN       MOCLDY    57  46  67 SW5       29.98S
CODY           MOCLDY    57  43  60 S9        30.07S
YELLOWSTONE LA PTCLDY    43  37  79 W3        30.26F
SALMON         CLEAR     50  43  77 CALM      29.98R
MULLAN PASS    PTCLDY    64  37  37 CALM      30.06S
SAND POINT     PTCLDY    52  50  93 CALM      29.85R
SPOKANE        MOCLDY    66  36  33 S3        29.83S
$$

REGIONAL REPORTS...ALBERTA
CITY           SKY/WX    TMP DP  RH WIND       PRES   REMARKS
CALGARY        N/A       52  43  72 NW3       29.91S
LETHBRIDGE     CLEAR     48  41  77 W7        29.87S
MEDICINE HAT   CLEAR     52  46  80 NE5       29.85S
EDMONTON       PTCLDY    45  41  86 S7        29.84R
WATERTON GATE  N/A       59  41  51 S12        N/A
CARDSTON       N/A       61  43  52 SW8        N/A
MILK RIVER     N/A       50  43  77 SW1        N/A
$$

REGIONAL REPORTS...SASKATCHEWAN
CITY           SKY/WX    TMP DP  RH WIND       PRES   REMARKS
SWIFT CURRENT  CLEAR     55  41  59 SE7       29.89S
REGINA         N/A       50  43  77 SE5       29.90R
VAL MARIE      N/A       43  41  93 E6         N/A
ASSINIBOIA     N/A       46  41  83 SE3        N/A
CORONACH       N/A       43  37  79 SE3        N/A

$$




USA.gov is the U.S. government's official web portal to all federal, state and local government web resources and services.